<?xml version="1.0" encoding="UTF-8" standalone="no" ?>
<gpx xmlns="http://www.topografix.com/GPX/1/1" xmlns:xsi="http://www.w3.org/2001/XMLSchema-instance" xsi:schemaLocation="http://www.topografix.com/GPX/1/1 http://www.topografix.com/GPX/1/1/gpx.xsd" version="1.1" creator="VisuGPX - https://www.visugpx.com">
  <metadata>
    <name>Etape 7, La Chaldette, Termes</name>
    <desc><![CDATA[<html dir="ltr"><head></head><body contenteditable="true">comment ...</body></html>]]></desc>
  </metadata>
  <trk>
    <name><![CDATA[Tour des Monts d'Aubrac,  175 km]]></name>
    <desc><![CDATA[<html dir="ltr"><head></head><body contenteditable="true">comment ...</body></html>]]></desc>
    <extensions>
      <line xmlns="http://www.topografix.com/GPX/gpx_style/0/2">
        <color>0000FF</color>
        <width>4</width>
      </line>
    </extensions>
    <trkseg>
      <trkpt lat="44.77288" lon="3.04485">
        <ele>1019</ele>
        <time>2024-03-30T18:33:33Z</time>
      </trkpt>
      <trkpt lat="44.77318" lon="3.04484">
        <ele>1021</ele>
        <time>2024-03-30T18:33:33Z</time>
      </trkpt>
      <trkpt lat="44.77318" lon="3.04484">
        <ele>1022</ele>
        <time>2024-03-30T18:33:33Z</time>
      </trkpt>
      <trkpt lat="44.77324" lon="3.04494">
        <ele>1024</ele>
        <time>2024-03-30T18:33:33Z</time>
      </trkpt>
      <trkpt lat="44.7733" lon="3.04511">
        <ele>1026</ele>
        <time>2024-03-30T18:33:33Z</time>
      </trkpt>
      <trkpt lat="44.7733" lon="3.04525">
        <ele>1028</ele>
        <time>2024-03-30T18:33:33Z</time>
      </trkpt>
      <trkpt lat="44.77335" lon="3.04562">
        <ele>1032</ele>
        <time>2024-03-30T18:33:33Z</time>
      </trkpt>
      <trkpt lat="44.77335" lon="3.04576">
        <ele>1035</ele>
        <time>2024-03-30T18:33:33Z</time>
      </trkpt>
      <trkpt lat="44.77315" lon="3.04627">
        <ele>1040</ele>
        <time>2024-03-30T18:33:33Z</time>
      </trkpt>
      <trkpt lat="44.77293" lon="3.04661">
        <ele>1043</ele>
        <time>2024-03-30T18:33:33Z</time>
      </trkpt>
      <trkpt lat="44.77252" lon="3.04696">
        <ele>1044</ele>
        <time>2024-03-30T18:33:33Z</time>
      </trkpt>
      <trkpt lat="44.77232" lon="3.04719">
        <ele>1046</ele>
        <time>2024-03-30T18:33:33Z</time>
      </trkpt>
      <trkpt lat="44.77228" lon="3.04728">
        <ele>1048</ele>
        <time>2024-03-30T18:33:33Z</time>
      </trkpt>
      <trkpt lat="44.77174" lon="3.04799">
        <ele>1050</ele>
        <time>2024-03-30T18:33:33Z</time>
      </trkpt>
      <trkpt lat="44.7717" lon="3.04812">
        <ele>1051</ele>
        <time>2024-03-30T18:33:33Z</time>
      </trkpt>
      <trkpt lat="44.77163" lon="3.04869">
        <ele>1053</ele>
        <time>2024-03-30T18:33:33Z</time>
      </trkpt>
      <trkpt lat="44.77188" lon="3.05019">
        <ele>1061</ele>
        <time>2024-03-30T18:33:33Z</time>
      </trkpt>
      <trkpt lat="44.77201" lon="3.05059">
        <ele>1061</ele>
        <time>2024-03-30T18:33:33Z</time>
      </trkpt>
      <trkpt lat="44.77233" lon="3.05113">
        <ele>1061</ele>
        <time>2024-03-30T18:33:33Z</time>
      </trkpt>
      <trkpt lat="44.77259" lon="3.05129">
        <ele>1062</ele>
        <time>2024-03-30T18:33:33Z</time>
      </trkpt>
      <trkpt lat="44.77291" lon="3.05133">
        <ele>1064</ele>
        <time>2024-03-30T18:33:33Z</time>
      </trkpt>
      <trkpt lat="44.77314" lon="3.05145">
        <ele>1064</ele>
        <time>2024-03-30T18:33:33Z</time>
      </trkpt>
      <trkpt lat="44.77327" lon="3.05161">
        <ele>1063</ele>
        <time>2024-03-30T18:33:33Z</time>
      </trkpt>
      <trkpt lat="44.77332" lon="3.05243">
        <ele>1064</ele>
        <time>2024-03-30T18:33:33Z</time>
      </trkpt>
      <trkpt lat="44.77319" lon="3.05259">
        <ele>1065</ele>
        <time>2024-03-30T18:33:33Z</time>
      </trkpt>
      <trkpt lat="44.77326" lon="3.05304">
        <ele>1066</ele>
        <time>2024-03-30T18:33:33Z</time>
      </trkpt>
      <trkpt lat="44.77336" lon="3.05321">
        <ele>1067</ele>
        <time>2024-03-30T18:33:33Z</time>
      </trkpt>
      <trkpt lat="44.77343" lon="3.05356">
        <ele>1067</ele>
        <time>2024-03-30T18:33:33Z</time>
      </trkpt>
      <trkpt lat="44.77343" lon="3.05356">
        <ele>1067</ele>
        <time>2024-03-30T18:33:33Z</time>
      </trkpt>
      <trkpt lat="44.77354" lon="3.05341">
        <ele>1067</ele>
        <time>2024-03-30T18:33:33Z</time>
      </trkpt>
      <trkpt lat="44.77357" lon="3.05331">
        <ele>1067</ele>
        <time>2024-03-30T18:33:33Z</time>
      </trkpt>
      <trkpt lat="44.77405" lon="3.05364">
        <ele>1067</ele>
        <time>2024-03-30T18:33:33Z</time>
      </trkpt>
      <trkpt lat="44.77478" lon="3.05369">
        <ele>1068</ele>
        <time>2024-03-30T18:33:33Z</time>
      </trkpt>
      <trkpt lat="44.77638" lon="3.05422">
        <ele>1066</ele>
        <time>2024-03-30T18:33:33Z</time>
      </trkpt>
      <trkpt lat="44.77658" lon="3.05423">
        <ele>1064</ele>
        <time>2024-03-30T18:33:33Z</time>
      </trkpt>
      <trkpt lat="44.77717" lon="3.05408">
        <ele>1061</ele>
        <time>2024-03-30T18:33:33Z</time>
      </trkpt>
      <trkpt lat="44.77749" lon="3.05407">
        <ele>1059</ele>
        <time>2024-03-30T18:33:33Z</time>
      </trkpt>
      <trkpt lat="44.77776" lon="3.05397">
        <ele>1057</ele>
        <time>2024-03-30T18:33:33Z</time>
      </trkpt>
      <trkpt lat="44.77832" lon="3.0539">
        <ele>1054</ele>
        <time>2024-03-30T18:33:33Z</time>
      </trkpt>
      <trkpt lat="44.77845" lon="3.05382">
        <ele>1052</ele>
        <time>2024-03-30T18:33:33Z</time>
      </trkpt>
      <trkpt lat="44.77873" lon="3.05343">
        <ele>1049</ele>
        <time>2024-03-30T18:33:33Z</time>
      </trkpt>
      <trkpt lat="44.7789" lon="3.05302">
        <ele>1046</ele>
        <time>2024-03-30T18:33:33Z</time>
      </trkpt>
      <trkpt lat="44.77898" lon="3.05285">
        <ele>1044</ele>
        <time>2024-03-30T18:33:33Z</time>
      </trkpt>
      <trkpt lat="44.77937" lon="3.05245">
        <ele>1041</ele>
        <time>2024-03-30T18:33:33Z</time>
      </trkpt>
      <trkpt lat="44.77937" lon="3.05244">
        <ele>1039</ele>
        <time>2024-03-30T18:33:33Z</time>
      </trkpt>
      <trkpt lat="44.77972" lon="3.05243">
        <ele>1035</ele>
        <time>2024-03-30T18:33:33Z</time>
      </trkpt>
      <trkpt lat="44.78002" lon="3.05256">
        <ele>1033</ele>
        <time>2024-03-30T18:33:33Z</time>
      </trkpt>
      <trkpt lat="44.78011" lon="3.0527">
        <ele>1031</ele>
        <time>2024-03-30T18:33:33Z</time>
      </trkpt>
      <trkpt lat="44.78014" lon="3.05284">
        <ele>1030</ele>
        <time>2024-03-30T18:33:33Z</time>
      </trkpt>
      <trkpt lat="44.78017" lon="3.05317">
        <ele>1028</ele>
        <time>2024-03-30T18:33:33Z</time>
      </trkpt>
      <trkpt lat="44.78023" lon="3.05329">
        <ele>1027</ele>
        <time>2024-03-30T18:33:33Z</time>
      </trkpt>
      <trkpt lat="44.78028" lon="3.05318">
        <ele>1025</ele>
        <time>2024-03-30T18:33:33Z</time>
      </trkpt>
      <trkpt lat="44.78034" lon="3.05283">
        <ele>1024</ele>
        <time>2024-03-30T18:33:33Z</time>
      </trkpt>
      <trkpt lat="44.78043" lon="3.05271">
        <ele>1022</ele>
        <time>2024-03-30T18:33:33Z</time>
      </trkpt>
      <trkpt lat="44.78056" lon="3.05263">
        <ele>1021</ele>
        <time>2024-03-30T18:33:33Z</time>
      </trkpt>
      <trkpt lat="44.78098" lon="3.0526">
        <ele>1020</ele>
        <time>2024-03-30T18:33:33Z</time>
      </trkpt>
      <trkpt lat="44.78085" lon="3.05279">
        <ele>1021</ele>
        <time>2024-03-30T18:33:33Z</time>
      </trkpt>
      <trkpt lat="44.78072" lon="3.05307">
        <ele>1022</ele>
        <time>2024-03-30T18:33:33Z</time>
      </trkpt>
      <trkpt lat="44.78056" lon="3.05387">
        <ele>1024</ele>
        <time>2024-03-30T18:33:33Z</time>
      </trkpt>
      <trkpt lat="44.78056" lon="3.05403">
        <ele>1024</ele>
        <time>2024-03-30T18:33:33Z</time>
      </trkpt>
      <trkpt lat="44.78056" lon="3.05403">
        <ele>1025</ele>
        <time>2024-03-30T18:33:33Z</time>
      </trkpt>
      <trkpt lat="44.78057" lon="3.05411">
        <ele>1026</ele>
        <time>2024-03-30T18:33:33Z</time>
      </trkpt>
      <trkpt lat="44.78064" lon="3.05429">
        <ele>1027</ele>
        <time>2024-03-30T18:33:33Z</time>
      </trkpt>
      <trkpt lat="44.7807" lon="3.05438">
        <ele>1028</ele>
        <time>2024-03-30T18:33:33Z</time>
      </trkpt>
      <trkpt lat="44.78082" lon="3.05446">
        <ele>1031</ele>
        <time>2024-03-30T18:33:33Z</time>
      </trkpt>
      <trkpt lat="44.78246" lon="3.05456">
        <ele>1036</ele>
        <time>2024-03-30T18:33:33Z</time>
      </trkpt>
      <trkpt lat="44.78278" lon="3.0547">
        <ele>1046</ele>
        <time>2024-03-30T18:33:33Z</time>
      </trkpt>
      <trkpt lat="44.78284" lon="3.05477">
        <ele>1048</ele>
        <time>2024-03-30T18:33:33Z</time>
      </trkpt>
      <trkpt lat="44.78307" lon="3.05552">
        <ele>1052</ele>
        <time>2024-03-30T18:33:33Z</time>
      </trkpt>
      <trkpt lat="44.78307" lon="3.0557">
        <ele>1054</ele>
        <time>2024-03-30T18:33:33Z</time>
      </trkpt>
      <trkpt lat="44.78308" lon="3.0557">
        <ele>1055</ele>
        <time>2024-03-30T18:33:33Z</time>
      </trkpt>
      <trkpt lat="44.78299" lon="3.05575">
        <ele>1057</ele>
        <time>2024-03-30T18:33:33Z</time>
      </trkpt>
      <trkpt lat="44.78289" lon="3.05569">
        <ele>1060</ele>
        <time>2024-03-30T18:33:33Z</time>
      </trkpt>
      <trkpt lat="44.78276" lon="3.05565">
        <ele>1063</ele>
        <time>2024-03-30T18:33:33Z</time>
      </trkpt>
      <trkpt lat="44.78267" lon="3.05584">
        <ele>1066</ele>
        <time>2024-03-30T18:33:33Z</time>
      </trkpt>
      <trkpt lat="44.7826" lon="3.05594">
        <ele>1070</ele>
        <time>2024-03-30T18:33:33Z</time>
      </trkpt>
      <trkpt lat="44.78235" lon="3.05619">
        <ele>1076</ele>
        <time>2024-03-30T18:33:33Z</time>
      </trkpt>
      <trkpt lat="44.7819" lon="3.05678">
        <ele>1084</ele>
        <time>2024-03-30T18:33:33Z</time>
      </trkpt>
      <trkpt lat="44.78161" lon="3.05763">
        <ele>1090</ele>
        <time>2024-03-30T18:33:33Z</time>
      </trkpt>
      <trkpt lat="44.78153" lon="3.0578">
        <ele>1091</ele>
        <time>2024-03-30T18:33:33Z</time>
      </trkpt>
      <trkpt lat="44.78141" lon="3.05793">
        <ele>1092</ele>
        <time>2024-03-30T18:33:33Z</time>
      </trkpt>
      <trkpt lat="44.7813" lon="3.058">
        <ele>1093</ele>
        <time>2024-03-30T18:33:33Z</time>
      </trkpt>
      <trkpt lat="44.78007" lon="3.05853">
        <ele>1093</ele>
        <time>2024-03-30T18:33:33Z</time>
      </trkpt>
      <trkpt lat="44.77985" lon="3.05866">
        <ele>1092</ele>
        <time>2024-03-30T18:33:33Z</time>
      </trkpt>
      <trkpt lat="44.77912" lon="3.05965">
        <ele>1089</ele>
        <time>2024-03-30T18:33:33Z</time>
      </trkpt>
      <trkpt lat="44.77903" lon="3.05989">
        <ele>1088</ele>
        <time>2024-03-30T18:33:33Z</time>
      </trkpt>
      <trkpt lat="44.779" lon="3.06009">
        <ele>1087</ele>
        <time>2024-03-30T18:33:33Z</time>
      </trkpt>
      <trkpt lat="44.77894" lon="3.06023">
        <ele>1086</ele>
        <time>2024-03-30T18:33:33Z</time>
      </trkpt>
      <trkpt lat="44.77874" lon="3.06056">
        <ele>1085</ele>
        <time>2024-03-30T18:33:33Z</time>
      </trkpt>
      <trkpt lat="44.77838" lon="3.0608">
        <ele>1084</ele>
        <time>2024-03-30T18:33:33Z</time>
      </trkpt>
      <trkpt lat="44.7783" lon="3.06088">
        <ele>1084</ele>
        <time>2024-03-30T18:33:33Z</time>
      </trkpt>
      <trkpt lat="44.77818" lon="3.06109">
        <ele>1084</ele>
        <time>2024-03-30T18:33:33Z</time>
      </trkpt>
      <trkpt lat="44.77815" lon="3.06122">
        <ele>1083</ele>
        <time>2024-03-30T18:33:33Z</time>
      </trkpt>
      <trkpt lat="44.77809" lon="3.06129">
        <ele>1082</ele>
        <time>2024-03-30T18:33:33Z</time>
      </trkpt>
      <trkpt lat="44.77799" lon="3.06136">
        <ele>1081</ele>
        <time>2024-03-30T18:33:33Z</time>
      </trkpt>
      <trkpt lat="44.77767" lon="3.06134">
        <ele>1078</ele>
        <time>2024-03-30T18:33:33Z</time>
      </trkpt>
      <trkpt lat="44.77706" lon="3.06143">
        <ele>1076</ele>
        <time>2024-03-30T18:33:33Z</time>
      </trkpt>
      <trkpt lat="44.77692" lon="3.06159">
        <ele>1077</ele>
        <time>2024-03-30T18:33:33Z</time>
      </trkpt>
      <trkpt lat="44.77688" lon="3.06173">
        <ele>1079</ele>
        <time>2024-03-30T18:33:33Z</time>
      </trkpt>
      <trkpt lat="44.77664" lon="3.06313">
        <ele>1083</ele>
        <time>2024-03-30T18:33:33Z</time>
      </trkpt>
      <trkpt lat="44.77675" lon="3.06333">
        <ele>1085</ele>
        <time>2024-03-30T18:33:33Z</time>
      </trkpt>
      <trkpt lat="44.77587" lon="3.06428">
        <ele>1088</ele>
        <time>2024-03-30T18:33:33Z</time>
      </trkpt>
      <trkpt lat="44.77581" lon="3.06441">
        <ele>1089</ele>
        <time>2024-03-30T18:33:33Z</time>
      </trkpt>
      <trkpt lat="44.77579" lon="3.06452">
        <ele>1091</ele>
        <time>2024-03-30T18:33:33Z</time>
      </trkpt>
      <trkpt lat="44.77584" lon="3.06518">
        <ele>1093</ele>
        <time>2024-03-30T18:33:33Z</time>
      </trkpt>
      <trkpt lat="44.77583" lon="3.06519">
        <ele>1094</ele>
        <time>2024-03-30T18:33:33Z</time>
      </trkpt>
      <trkpt lat="44.77579" lon="3.0654">
        <ele>1096</ele>
        <time>2024-03-30T18:33:33Z</time>
      </trkpt>
      <trkpt lat="44.77572" lon="3.06552">
        <ele>1100</ele>
        <time>2024-03-30T18:33:33Z</time>
      </trkpt>
      <trkpt lat="44.77484" lon="3.06768">
        <ele>1110</ele>
        <time>2024-03-30T18:33:33Z</time>
      </trkpt>
      <trkpt lat="44.77456" lon="3.06886">
        <ele>1115</ele>
        <time>2024-03-30T18:33:33Z</time>
      </trkpt>
      <trkpt lat="44.77424" lon="3.06959">
        <ele>1119</ele>
        <time>2024-03-30T18:33:33Z</time>
      </trkpt>
      <trkpt lat="44.7736" lon="3.07158">
        <ele>1126</ele>
        <time>2024-03-30T18:33:33Z</time>
      </trkpt>
      <trkpt lat="44.77307" lon="3.07275">
        <ele>1129</ele>
        <time>2024-03-30T18:33:33Z</time>
      </trkpt>
      <trkpt lat="44.77306" lon="3.07274">
        <ele>1130</ele>
        <time>2024-03-30T18:33:33Z</time>
      </trkpt>
      <trkpt lat="44.77273" lon="3.07318">
        <ele>1131</ele>
        <time>2024-03-30T18:33:33Z</time>
      </trkpt>
      <trkpt lat="44.7724" lon="3.07369">
        <ele>1132</ele>
        <time>2024-03-30T18:33:33Z</time>
      </trkpt>
      <trkpt lat="44.77222" lon="3.0742">
        <ele>1138</ele>
        <time>2024-03-30T18:33:33Z</time>
      </trkpt>
      <trkpt lat="44.77221" lon="3.07434">
        <ele>1141</ele>
        <time>2024-03-30T18:33:33Z</time>
      </trkpt>
      <trkpt lat="44.77286" lon="3.07817">
        <ele>1156</ele>
      </trkpt>
      <trkpt lat="44.77353" lon="3.08214">
        <ele>1164</ele>
      </trkpt>
      <trkpt lat="44.77367" lon="3.083">
        <ele>1166</ele>
        <time>2024-03-30T18:33:33Z</time>
      </trkpt>
      <trkpt lat="44.77341" lon="3.08401">
        <ele>1166</ele>
        <time>2024-03-30T18:33:33Z</time>
      </trkpt>
      <trkpt lat="44.77338" lon="3.08441">
        <ele>1165</ele>
        <time>2024-03-30T18:33:33Z</time>
      </trkpt>
      <trkpt lat="44.7734" lon="3.08441">
        <ele>1165</ele>
        <time>2024-03-30T18:33:33Z</time>
      </trkpt>
      <trkpt lat="44.77332" lon="3.08491">
        <ele>1164</ele>
        <time>2024-03-30T18:33:33Z</time>
      </trkpt>
      <trkpt lat="44.77333" lon="3.08503">
        <ele>1163</ele>
        <time>2024-03-30T18:33:33Z</time>
      </trkpt>
      <trkpt lat="44.77342" lon="3.08511">
        <ele>1162</ele>
        <time>2024-03-30T18:33:33Z</time>
      </trkpt>
      <trkpt lat="44.77436" lon="3.08501">
        <ele>1159</ele>
      </trkpt>
      <trkpt lat="44.77451" lon="3.085">
        <ele>1156</ele>
        <time>2024-03-30T18:33:33Z</time>
      </trkpt>
      <trkpt lat="44.77676" lon="3.08552">
        <ele>1148</ele>
        <time>2024-03-30T18:33:33Z</time>
      </trkpt>
      <trkpt lat="44.77683" lon="3.08557">
        <ele>1147</ele>
        <time>2024-03-30T18:33:33Z</time>
      </trkpt>
      <trkpt lat="44.77696" lon="3.08582">
        <ele>1145</ele>
        <time>2024-03-30T18:33:33Z</time>
      </trkpt>
      <trkpt lat="44.777" lon="3.08605">
        <ele>1144</ele>
        <time>2024-03-30T18:33:33Z</time>
      </trkpt>
      <trkpt lat="44.77718" lon="3.08614">
        <ele>1142</ele>
        <time>2024-03-30T18:33:33Z</time>
      </trkpt>
      <trkpt lat="44.77768" lon="3.08609">
        <ele>1140</ele>
        <time>2024-03-30T18:33:33Z</time>
      </trkpt>
      <trkpt lat="44.77794" lon="3.08604">
        <ele>1138</ele>
      </trkpt>
      <trkpt lat="44.77839" lon="3.08594">
        <ele>1137</ele>
        <time>2024-03-30T18:33:33Z</time>
      </trkpt>
      <trkpt lat="44.77839" lon="3.08596">
        <ele>1135</ele>
        <time>2024-03-30T18:33:33Z</time>
      </trkpt>
      <trkpt lat="44.77877" lon="3.08584">
        <ele>1132</ele>
        <time>2024-03-30T18:33:33Z</time>
      </trkpt>
      <trkpt lat="44.77958" lon="3.08508">
        <ele>1127</ele>
        <time>2024-03-30T18:33:33Z</time>
      </trkpt>
      <trkpt lat="44.78009" lon="3.08427">
        <ele>1124</ele>
        <time>2024-03-30T18:33:33Z</time>
      </trkpt>
      <trkpt lat="44.78057" lon="3.08413">
        <ele>1122</ele>
        <time>2024-03-30T18:33:33Z</time>
      </trkpt>
      <trkpt lat="44.78079" lon="3.08399">
        <ele>1122</ele>
        <time>2024-03-30T18:33:33Z</time>
      </trkpt>
      <trkpt lat="44.78099" lon="3.08374">
        <ele>1120</ele>
      </trkpt>
      <trkpt lat="44.78244" lon="3.08192">
        <ele>1118</ele>
        <time>2024-03-30T18:33:33Z</time>
      </trkpt>
      <trkpt lat="44.78244" lon="3.08192">
        <ele>1117</ele>
        <time>2024-03-30T18:33:33Z</time>
      </trkpt>
      <trkpt lat="44.78196" lon="3.08355">
        <ele>1116</ele>
      </trkpt>
      <trkpt lat="44.78194" lon="3.0836">
        <ele>1115</ele>
        <time>2024-03-30T18:33:33Z</time>
      </trkpt>
      <trkpt lat="44.78193" lon="3.0836">
        <ele>1113</ele>
        <time>2024-03-30T18:33:33Z</time>
      </trkpt>
      <trkpt lat="44.78193" lon="3.08519">
        <ele>1110</ele>
        <time>2024-03-30T18:33:33Z</time>
      </trkpt>
      <trkpt lat="44.782" lon="3.08556">
        <ele>1108</ele>
        <time>2024-03-30T18:33:33Z</time>
      </trkpt>
      <trkpt lat="44.78197" lon="3.08573">
        <ele>1108</ele>
        <time>2024-03-30T18:33:33Z</time>
      </trkpt>
      <trkpt lat="44.78191" lon="3.08584">
        <ele>1107</ele>
        <time>2024-03-30T18:33:33Z</time>
      </trkpt>
      <trkpt lat="44.78182" lon="3.08608">
        <ele>1107</ele>
        <time>2024-03-30T18:33:33Z</time>
      </trkpt>
      <trkpt lat="44.7818" lon="3.08619">
        <ele>1107</ele>
        <time>2024-03-30T18:33:33Z</time>
      </trkpt>
      <trkpt lat="44.78182" lon="3.08631">
        <ele>1107</ele>
        <time>2024-03-30T18:33:33Z</time>
      </trkpt>
      <trkpt lat="44.78194" lon="3.08667">
        <ele>1107</ele>
        <time>2024-03-30T18:33:33Z</time>
      </trkpt>
      <trkpt lat="44.78198" lon="3.08687">
        <ele>1107</ele>
        <time>2024-03-30T18:33:33Z</time>
      </trkpt>
      <trkpt lat="44.78203" lon="3.08699">
        <ele>1107</ele>
        <time>2024-03-30T18:33:33Z</time>
      </trkpt>
      <trkpt lat="44.7821" lon="3.08706">
        <ele>1108</ele>
        <time>2024-03-30T18:33:33Z</time>
      </trkpt>
      <trkpt lat="44.7822" lon="3.08712">
        <ele>1108</ele>
        <time>2024-03-30T18:33:33Z</time>
      </trkpt>
      <trkpt lat="44.78248" lon="3.08715">
        <ele>1109</ele>
      </trkpt>
      <trkpt lat="44.7825" lon="3.08715">
        <ele>1109</ele>
        <time>2024-03-30T18:33:33Z</time>
      </trkpt>
      <trkpt lat="44.78258" lon="3.08719">
        <ele>1109</ele>
        <time>2024-03-30T18:33:33Z</time>
      </trkpt>
      <trkpt lat="44.78311" lon="3.08789">
        <ele>1110</ele>
        <time>2024-03-30T18:33:33Z</time>
      </trkpt>
      <trkpt lat="44.78311" lon="3.08789">
        <ele>1110</ele>
        <time>2024-03-30T18:33:33Z</time>
      </trkpt>
      <trkpt lat="44.78329" lon="3.08822">
        <ele>1110</ele>
        <time>2024-03-30T18:33:33Z</time>
      </trkpt>
      <trkpt lat="44.78333" lon="3.08844">
        <ele>1110</ele>
        <time>2024-03-30T18:33:33Z</time>
      </trkpt>
      <trkpt lat="44.78332" lon="3.08856">
        <ele>1110</ele>
        <time>2024-03-30T18:33:33Z</time>
      </trkpt>
      <trkpt lat="44.78307" lon="3.0891">
        <ele>1109</ele>
        <time>2024-03-30T18:33:33Z</time>
      </trkpt>
      <trkpt lat="44.78303" lon="3.08926">
        <ele>1110</ele>
        <time>2024-03-30T18:33:33Z</time>
      </trkpt>
      <trkpt lat="44.78302" lon="3.08967">
        <ele>1111</ele>
        <time>2024-03-30T18:33:33Z</time>
      </trkpt>
      <trkpt lat="44.78334" lon="3.09077">
        <ele>1113</ele>
        <time>2024-03-30T18:33:33Z</time>
      </trkpt>
      <trkpt lat="44.78353" lon="3.09172">
        <ele>1116</ele>
        <time>2024-03-30T18:33:33Z</time>
      </trkpt>
      <trkpt lat="44.78369" lon="3.09231">
        <ele>1117</ele>
        <time>2024-03-30T18:33:33Z</time>
      </trkpt>
      <trkpt lat="44.78368" lon="3.09242">
        <ele>1117</ele>
        <time>2024-03-30T18:33:33Z</time>
      </trkpt>
      <trkpt lat="44.78368" lon="3.09242">
        <ele>1118</ele>
        <time>2024-03-30T18:33:33Z</time>
      </trkpt>
      <trkpt lat="44.78355" lon="3.09275">
        <ele>1119</ele>
        <time>2024-03-30T18:33:33Z</time>
      </trkpt>
      <trkpt lat="44.78335" lon="3.09304">
        <ele>1119</ele>
        <time>2024-03-30T18:33:33Z</time>
      </trkpt>
      <trkpt lat="44.78307" lon="3.09336">
        <ele>1119</ele>
        <time>2024-03-30T18:33:33Z</time>
      </trkpt>
      <trkpt lat="44.7819" lon="3.09419">
        <ele>1120</ele>
        <time>2024-03-30T18:33:33Z</time>
      </trkpt>
      <trkpt lat="44.78166" lon="3.09443">
        <ele>1122</ele>
        <time>2024-03-30T18:33:33Z</time>
      </trkpt>
      <trkpt lat="44.78099" lon="3.09589">
        <ele>1128</ele>
        <time>2024-03-30T18:33:33Z</time>
      </trkpt>
      <trkpt lat="44.78092" lon="3.09593">
        <ele>1130</ele>
        <time>2024-03-30T18:33:33Z</time>
      </trkpt>
      <trkpt lat="44.78007" lon="3.096">
        <ele>1135</ele>
        <time>2024-03-30T18:33:33Z</time>
      </trkpt>
      <trkpt lat="44.77997" lon="3.09599">
        <ele>1136</ele>
        <time>2024-03-30T18:33:33Z</time>
      </trkpt>
      <trkpt lat="44.77998" lon="3.09611">
        <ele>1138</ele>
        <time>2024-03-30T18:33:33Z</time>
      </trkpt>
      <trkpt lat="44.78063" lon="3.0978">
        <ele>1141</ele>
        <time>2024-03-30T18:33:33Z</time>
      </trkpt>
      <trkpt lat="44.78065" lon="3.0978">
        <ele>1141</ele>
        <time>2024-03-30T18:33:33Z</time>
      </trkpt>
      <trkpt lat="44.78073" lon="3.09797">
        <ele>1141</ele>
        <time>2024-03-30T18:33:33Z</time>
      </trkpt>
      <trkpt lat="44.78086" lon="3.098">
        <ele>1141</ele>
        <time>2024-03-30T18:33:33Z</time>
      </trkpt>
      <trkpt lat="44.78086" lon="3.09802">
        <ele>1142</ele>
        <time>2024-03-30T18:33:33Z</time>
      </trkpt>
      <trkpt lat="44.78093" lon="3.09799">
        <ele>1142</ele>
        <time>2024-03-30T18:33:33Z</time>
      </trkpt>
      <trkpt lat="44.78104" lon="3.09792">
        <ele>1142</ele>
      </trkpt>
      <trkpt lat="44.78118" lon="3.09784">
        <ele>1142</ele>
        <time>2024-03-30T18:33:33Z</time>
      </trkpt>
      <trkpt lat="44.78182" lon="3.09765">
        <ele>1143</ele>
        <time>2024-03-30T18:33:33Z</time>
      </trkpt>
      <trkpt lat="44.7822" lon="3.09767">
        <ele>1143</ele>
        <time>2024-03-30T18:33:33Z</time>
      </trkpt>
      <trkpt lat="44.78243" lon="3.09764">
        <ele>1144</ele>
        <time>2024-03-30T18:33:33Z</time>
      </trkpt>
      <trkpt lat="44.78257" lon="3.09756">
        <ele>1145</ele>
        <time>2024-03-30T18:33:33Z</time>
      </trkpt>
      <trkpt lat="44.78348" lon="3.09732">
        <ele>1147</ele>
        <time>2024-03-30T18:33:33Z</time>
      </trkpt>
      <trkpt lat="44.78348" lon="3.09733">
        <ele>1147</ele>
        <time>2024-03-30T18:33:33Z</time>
      </trkpt>
      <trkpt lat="44.78357" lon="3.09735">
        <ele>1148</ele>
        <time>2024-03-30T18:33:33Z</time>
      </trkpt>
      <trkpt lat="44.78518" lon="3.0987">
        <ele>1150</ele>
        <time>2024-03-30T18:33:33Z</time>
      </trkpt>
      <trkpt lat="44.78584" lon="3.09892">
        <ele>1150</ele>
        <time>2024-03-30T18:33:33Z</time>
      </trkpt>
      <trkpt lat="44.78631" lon="3.09885">
        <ele>1150</ele>
        <time>2024-03-30T18:33:33Z</time>
      </trkpt>
      <trkpt lat="44.78736" lon="3.09837">
        <ele>1147</ele>
        <time>2024-03-30T18:33:33Z</time>
      </trkpt>
      <trkpt lat="44.78805" lon="3.09822">
        <ele>1146</ele>
        <time>2024-03-30T18:33:33Z</time>
      </trkpt>
      <trkpt lat="44.78805" lon="3.09823">
        <ele>1146</ele>
        <time>2024-03-30T18:33:33Z</time>
      </trkpt>
      <trkpt lat="44.78898" lon="3.09792">
        <ele>1144</ele>
      </trkpt>
      <trkpt lat="44.78974" lon="3.09766">
        <ele>1142</ele>
        <time>2024-03-30T18:33:33Z</time>
      </trkpt>
      <trkpt lat="44.78992" lon="3.09764">
        <ele>1139</ele>
        <time>2024-03-30T18:33:33Z</time>
      </trkpt>
      <trkpt lat="44.79169" lon="3.0978">
        <ele>1131</ele>
        <time>2024-03-30T18:33:33Z</time>
      </trkpt>
      <trkpt lat="44.79205" lon="3.09803">
        <ele>1128</ele>
        <time>2024-03-30T18:33:33Z</time>
      </trkpt>
      <trkpt lat="44.7933" lon="3.09916">
        <ele>1122</ele>
        <time>2024-03-30T18:33:33Z</time>
      </trkpt>
      <trkpt lat="44.79335" lon="3.09926">
        <ele>1120</ele>
        <time>2024-03-30T18:33:33Z</time>
      </trkpt>
      <trkpt lat="44.79393" lon="3.10003">
        <ele>1117</ele>
        <time>2024-03-30T18:33:33Z</time>
      </trkpt>
      <trkpt lat="44.79393" lon="3.10003">
        <ele>1117</ele>
        <time>2024-03-30T18:33:33Z</time>
      </trkpt>
      <trkpt lat="44.79399" lon="3.10005">
        <ele>1116</ele>
        <time>2024-03-30T18:33:33Z</time>
      </trkpt>
      <trkpt lat="44.79407" lon="3.10001">
        <ele>1115</ele>
        <time>2024-03-30T18:33:33Z</time>
      </trkpt>
      <trkpt lat="44.79441" lon="3.09968">
        <ele>1114</ele>
        <time>2024-03-30T18:33:33Z</time>
      </trkpt>
      <trkpt lat="44.79477" lon="3.09946">
        <ele>1113</ele>
        <time>2024-03-30T18:33:33Z</time>
      </trkpt>
      <trkpt lat="44.7949" lon="3.09945">
        <ele>1111</ele>
        <time>2024-03-30T18:33:33Z</time>
      </trkpt>
      <trkpt lat="44.7954" lon="3.09954">
        <ele>1110</ele>
        <time>2024-03-30T18:33:33Z</time>
      </trkpt>
      <trkpt lat="44.79569" lon="3.09947">
        <ele>1109</ele>
        <time>2024-03-30T18:33:33Z</time>
      </trkpt>
      <trkpt lat="44.79638" lon="3.099">
        <ele>1109</ele>
        <time>2024-03-30T18:33:33Z</time>
      </trkpt>
      <trkpt lat="44.79662" lon="3.09872">
        <ele>1112</ele>
        <time>2024-03-30T18:33:33Z</time>
      </trkpt>
      <trkpt lat="44.79695" lon="3.09797">
        <ele>1114</ele>
        <time>2024-03-30T18:33:33Z</time>
      </trkpt>
      <trkpt lat="44.79735" lon="3.09722">
        <ele>1115</ele>
        <time>2024-03-30T18:33:33Z</time>
      </trkpt>
      <trkpt lat="44.79762" lon="3.09687">
        <ele>1115</ele>
        <time>2024-03-30T18:33:33Z</time>
      </trkpt>
      <trkpt lat="44.79761" lon="3.09686">
        <ele>1114</ele>
        <time>2024-03-30T18:33:33Z</time>
      </trkpt>
      <trkpt lat="44.7977" lon="3.09682">
        <ele>1113</ele>
        <time>2024-03-30T18:33:33Z</time>
      </trkpt>
      <trkpt lat="44.79801" lon="3.09672">
        <ele>1112</ele>
        <time>2024-03-30T18:33:33Z</time>
      </trkpt>
      <trkpt lat="44.79863" lon="3.09676">
        <ele>1110</ele>
      </trkpt>
      <trkpt lat="44.79921" lon="3.09679">
        <ele>1109</ele>
        <time>2024-03-30T18:33:33Z</time>
      </trkpt>
      <trkpt lat="44.80116" lon="3.09727">
        <ele>1108</ele>
        <time>2024-03-30T18:33:33Z</time>
      </trkpt>
      <trkpt lat="44.80121" lon="3.09737">
        <ele>1108</ele>
        <time>2024-03-30T18:33:33Z</time>
      </trkpt>
      <trkpt lat="44.80162" lon="3.09714">
        <ele>1109</ele>
      </trkpt>
      <trkpt lat="44.80236" lon="3.09674">
        <ele>1112</ele>
        <time>2024-03-30T18:33:33Z</time>
      </trkpt>
      <trkpt lat="44.80292" lon="3.09622">
        <ele>1116</ele>
        <time>2024-03-30T18:33:33Z</time>
      </trkpt>
      <trkpt lat="44.80419" lon="3.0953">
        <ele>1120</ele>
      </trkpt>
      <trkpt lat="44.80447" lon="3.0951">
        <ele>1118</ele>
        <time>2024-03-30T18:33:33Z</time>
      </trkpt>
      <trkpt lat="44.8048" lon="3.09512">
        <ele>1115</ele>
        <time>2024-03-30T18:33:33Z</time>
      </trkpt>
      <trkpt lat="44.8048" lon="3.0951">
        <ele>1112</ele>
        <time>2024-03-30T18:33:33Z</time>
      </trkpt>
      <trkpt lat="44.80591" lon="3.09504">
        <ele>1104</ele>
        <time>2024-03-30T18:33:33Z</time>
      </trkpt>
      <trkpt lat="44.80625" lon="3.0949">
        <ele>1100</ele>
        <time>2024-03-30T18:33:33Z</time>
      </trkpt>
      <trkpt lat="44.80636" lon="3.0948">
        <ele>1096</ele>
        <time>2024-03-30T18:33:33Z</time>
      </trkpt>
      <trkpt lat="44.80714" lon="3.09449">
        <ele>1089</ele>
      </trkpt>
      <trkpt lat="44.80731" lon="3.09442">
        <ele>1084</ele>
        <time>2024-03-30T18:33:33Z</time>
      </trkpt>
      <trkpt lat="44.80893" lon="3.09436">
        <ele>1072</ele>
        <time>2024-03-30T18:33:33Z</time>
      </trkpt>
      <trkpt lat="44.80906" lon="3.09432">
        <ele>1069</ele>
        <time>2024-03-30T18:33:33Z</time>
      </trkpt>
      <trkpt lat="44.80994" lon="3.09376">
        <ele>1062</ele>
      </trkpt>
      <trkpt lat="44.80994" lon="3.09376">
        <ele>1061</ele>
        <time>2024-03-30T18:33:33Z</time>
      </trkpt>
      <trkpt lat="44.80994" lon="3.09377">
        <ele>1060</ele>
        <time>2024-03-30T18:33:33Z</time>
      </trkpt>
      <trkpt lat="44.81004" lon="3.09375">
        <ele>1058</ele>
        <time>2024-03-30T18:33:33Z</time>
      </trkpt>
      <trkpt lat="44.8103" lon="3.09383">
        <ele>1054</ele>
        <time>2024-03-30T18:33:33Z</time>
      </trkpt>
      <trkpt lat="44.81088" lon="3.09395">
        <ele>1050</ele>
        <time>2024-03-30T18:33:33Z</time>
      </trkpt>
      <trkpt lat="44.81098" lon="3.09392">
        <ele>1046</ele>
        <time>2024-03-30T18:33:33Z</time>
      </trkpt>
      <trkpt lat="44.81195" lon="3.09308">
        <ele>1036</ele>
        <time>2024-03-30T18:33:33Z</time>
      </trkpt>
      <trkpt lat="44.81287" lon="3.0927">
        <ele>1032</ele>
      </trkpt>
      <trkpt lat="44.81289" lon="3.09269">
        <ele>1031</ele>
        <time>2024-03-30T18:33:33Z</time>
      </trkpt>
      <trkpt lat="44.81366" lon="3.09251">
        <ele>1027</ele>
        <time>2024-03-30T18:33:33Z</time>
      </trkpt>
      <trkpt lat="44.81409" lon="3.0923">
        <ele>1024</ele>
        <time>2024-03-30T18:33:33Z</time>
      </trkpt>
      <trkpt lat="44.81448" lon="3.09197">
        <ele>1021</ele>
        <time>2024-03-30T18:33:33Z</time>
      </trkpt>
      <trkpt lat="44.81482" lon="3.09148">
        <ele>1019</ele>
        <time>2024-03-30T18:33:33Z</time>
      </trkpt>
      <trkpt lat="44.81493" lon="3.09071">
        <ele>1017</ele>
      </trkpt>
      <trkpt lat="44.81494" lon="3.09065">
        <ele>1016</ele>
        <time>2024-03-30T18:33:33Z</time>
      </trkpt>
      <trkpt lat="44.81494" lon="3.09064">
        <ele>1014</ele>
        <time>2024-03-30T18:33:33Z</time>
      </trkpt>
      <trkpt lat="44.81553" lon="3.09036">
        <ele>1011</ele>
        <time>2024-03-30T18:33:33Z</time>
      </trkpt>
      <trkpt lat="44.81612" lon="3.09032">
        <ele>1009</ele>
        <time>2024-03-30T18:33:33Z</time>
      </trkpt>
      <trkpt lat="44.8162" lon="3.09029">
        <ele>1009</ele>
        <time>2024-03-30T18:33:33Z</time>
      </trkpt>
      <trkpt lat="44.81654" lon="3.09004">
        <ele>1007</ele>
        <time>2024-03-30T18:33:33Z</time>
      </trkpt>
      <trkpt lat="44.81662" lon="3.09002">
        <ele>1007</ele>
        <time>2024-03-30T18:33:33Z</time>
      </trkpt>
      <trkpt lat="44.81671" lon="3.09003">
        <ele>1005</ele>
        <time>2024-03-30T18:33:33Z</time>
      </trkpt>
      <trkpt lat="44.81704" lon="3.09024">
        <ele>1004</ele>
        <time>2024-03-30T18:33:33Z</time>
      </trkpt>
      <trkpt lat="44.81713" lon="3.09026">
        <ele>1002</ele>
        <time>2024-03-30T18:33:33Z</time>
      </trkpt>
      <trkpt lat="44.81727" lon="3.09024">
        <ele>1000</ele>
        <time>2024-03-30T18:33:33Z</time>
      </trkpt>
      <trkpt lat="44.81766" lon="3.09013">
        <ele>996</ele>
        <time>2024-03-30T18:33:33Z</time>
      </trkpt>
      <trkpt lat="44.81778" lon="3.09005">
        <ele>994</ele>
      </trkpt>
      <trkpt lat="44.81791" lon="3.08997">
        <ele>991</ele>
        <time>2024-03-30T18:33:33Z</time>
      </trkpt>
      <trkpt lat="44.81902" lon="3.08872">
        <ele>981</ele>
        <time>2024-03-30T18:33:33Z</time>
      </trkpt>
      <trkpt lat="44.81982" lon="3.0882">
        <ele>978</ele>
        <time>2024-03-30T18:33:33Z</time>
      </trkpt>
      <trkpt lat="44.81998" lon="3.08802">
        <ele>977</ele>
        <time>2024-03-30T18:33:33Z</time>
      </trkpt>
      <trkpt lat="44.82011" lon="3.08795">
        <ele>977</ele>
        <time>2024-03-30T18:33:33Z</time>
      </trkpt>
      <trkpt lat="44.82011" lon="3.08793">
        <ele>970</ele>
        <time>2024-03-30T18:33:33Z</time>
      </trkpt>
      <trkpt lat="44.82079" lon="3.08849">
        <ele>965</ele>
        <time>2024-03-30T18:33:33Z</time>
      </trkpt>
      <trkpt lat="44.82191" lon="3.08835">
        <ele>961</ele>
        <time>2024-03-30T18:33:33Z</time>
      </trkpt>
      <trkpt lat="44.82264" lon="3.08817">
        <ele>958</ele>
        <time>2024-03-30T18:33:33Z</time>
      </trkpt>
      <trkpt lat="44.82313" lon="3.0881">
        <ele>957</ele>
        <time>2024-03-30T18:33:33Z</time>
      </trkpt>
      <trkpt lat="44.82368" lon="3.08813">
        <ele>954</ele>
        <time>2024-03-30T18:33:33Z</time>
      </trkpt>
      <trkpt lat="44.82411" lon="3.08817">
        <ele>952</ele>
        <time>2024-03-30T18:33:33Z</time>
      </trkpt>
      <trkpt lat="44.8247" lon="3.08834">
        <ele>950</ele>
        <time>2024-03-30T18:33:33Z</time>
      </trkpt>
      <trkpt lat="44.82429" lon="3.08901">
        <ele>950</ele>
        <time>2024-03-30T18:33:33Z</time>
      </trkpt>
      <trkpt lat="44.82428" lon="3.089">
        <ele>951</ele>
        <time>2024-03-30T18:33:33Z</time>
      </trkpt>
      <trkpt lat="44.82414" lon="3.0894">
        <ele>952</ele>
        <time>2024-03-30T18:33:33Z</time>
      </trkpt>
      <trkpt lat="44.82406" lon="3.0898">
        <ele>954</ele>
        <time>2024-03-30T18:33:33Z</time>
      </trkpt>
      <trkpt lat="44.82407" lon="3.09065">
        <ele>957</ele>
        <time>2024-03-30T18:33:33Z</time>
      </trkpt>
      <trkpt lat="44.82398" lon="3.09138">
        <ele>960</ele>
        <time>2024-03-30T18:33:33Z</time>
      </trkpt>
      <trkpt lat="44.8237" lon="3.09222">
        <ele>962</ele>
        <time>2024-03-30T18:33:33Z</time>
      </trkpt>
      <trkpt lat="44.8237" lon="3.09222">
        <ele>960</ele>
        <time>2024-03-30T18:33:33Z</time>
      </trkpt>
      <trkpt lat="44.82418" lon="3.09208">
        <ele>959</ele>
        <time>2024-03-30T18:33:33Z</time>
      </trkpt>
      <trkpt lat="44.82427" lon="3.09201">
        <ele>959</ele>
        <time>2024-03-30T18:33:33Z</time>
      </trkpt>
      <trkpt lat="44.82434" lon="3.09189">
        <ele>959</ele>
        <time>2024-03-30T18:33:33Z</time>
      </trkpt>
      <trkpt lat="44.82455" lon="3.09202">
        <ele>959</ele>
        <time>2024-03-30T18:33:33Z</time>
      </trkpt>
      <trkpt lat="44.82485" lon="3.09227">
        <ele>959</ele>
        <time>2024-03-30T18:33:33Z</time>
      </trkpt>
      <trkpt lat="44.82509" lon="3.09264">
        <ele>959</ele>
        <time>2024-03-30T18:33:33Z</time>
      </trkpt>
      <trkpt lat="44.82534" lon="3.09358">
        <ele>958</ele>
        <time>2024-03-30T18:33:33Z</time>
      </trkpt>
      <trkpt lat="44.82517" lon="3.09598">
        <ele>956</ele>
        <time>2024-03-30T18:33:33Z</time>
      </trkpt>
      <trkpt lat="44.82514" lon="3.09608">
        <ele>955</ele>
        <time>2024-03-30T18:33:33Z</time>
      </trkpt>
      <trkpt lat="44.82509" lon="3.09616">
        <ele>955</ele>
        <time>2024-03-30T18:33:33Z</time>
      </trkpt>
      <trkpt lat="44.82506" lon="3.09637">
        <ele>955</ele>
        <time>2024-03-30T18:33:33Z</time>
      </trkpt>
      <trkpt lat="44.82517" lon="3.09678">
        <ele>955</ele>
        <time>2024-03-30T18:33:33Z</time>
      </trkpt>
      <trkpt lat="44.82526" lon="3.09692">
        <ele>956</ele>
        <time>2024-03-30T18:33:33Z</time>
      </trkpt>
      <trkpt lat="44.82557" lon="3.09725">
        <ele>958</ele>
        <time>2024-03-30T18:33:33Z</time>
      </trkpt>
      <trkpt lat="44.82574" lon="3.09734">
        <ele>959</ele>
        <time>2024-03-30T18:33:33Z</time>
      </trkpt>
      <trkpt lat="44.8259" lon="3.09749">
        <ele>960</ele>
        <time>2024-03-30T18:33:33Z</time>
      </trkpt>
      <trkpt lat="44.82605" lon="3.09775">
        <ele>962</ele>
        <time>2024-03-30T18:33:33Z</time>
      </trkpt>
      <trkpt lat="44.82623" lon="3.09818">
        <ele>965</ele>
        <time>2024-03-30T18:33:33Z</time>
      </trkpt>
      <trkpt lat="44.82626" lon="3.09856">
        <ele>966</ele>
        <time>2024-03-30T18:33:33Z</time>
      </trkpt>
      <trkpt lat="44.82626" lon="3.09857">
        <ele>967</ele>
        <time>2024-03-30T18:33:33Z</time>
      </trkpt>
      <trkpt lat="44.82618" lon="3.09954">
        <ele>970</ele>
        <time>2024-03-30T18:33:33Z</time>
      </trkpt>
      <trkpt lat="44.82606" lon="3.10002">
        <ele>971</ele>
        <time>2024-03-30T18:33:33Z</time>
      </trkpt>
      <trkpt lat="44.82608" lon="3.10034">
        <ele>971</ele>
        <time>2024-03-30T18:33:33Z</time>
      </trkpt>
      <trkpt lat="44.82617" lon="3.1009">
        <ele>971</ele>
        <time>2024-03-30T18:33:33Z</time>
      </trkpt>
      <trkpt lat="44.82655" lon="3.10149">
        <ele>969</ele>
        <time>2024-03-30T18:33:33Z</time>
      </trkpt>
      <trkpt lat="44.82665" lon="3.10193">
        <ele>967</ele>
        <time>2024-03-30T18:33:33Z</time>
      </trkpt>
      <trkpt lat="44.82674" lon="3.10212">
        <ele>966</ele>
        <time>2024-03-30T18:33:33Z</time>
      </trkpt>
      <trkpt lat="44.82696" lon="3.10237">
        <ele>964</ele>
        <time>2024-03-30T18:33:33Z</time>
      </trkpt>
      <trkpt lat="44.82725" lon="3.10292">
        <ele>961</ele>
        <time>2024-03-30T18:33:33Z</time>
      </trkpt>
      <trkpt lat="44.82751" lon="3.10387">
        <ele>957</ele>
        <time>2024-03-30T18:33:33Z</time>
      </trkpt>
      <trkpt lat="44.82783" lon="3.10426">
        <ele>955</ele>
        <time>2024-03-30T18:33:33Z</time>
      </trkpt>
      <trkpt lat="44.82789" lon="3.10445">
        <ele>954</ele>
        <time>2024-03-30T18:33:33Z</time>
      </trkpt>
      <trkpt lat="44.82787" lon="3.10445">
        <ele>954</ele>
        <time>2024-03-30T18:33:33Z</time>
      </trkpt>
      <trkpt lat="44.82785" lon="3.10567">
        <ele>952</ele>
        <time>2024-03-30T18:33:33Z</time>
      </trkpt>
      <trkpt lat="44.8279" lon="3.10599">
        <ele>943</ele>
        <time>2024-03-30T18:33:33Z</time>
      </trkpt>
      <trkpt lat="44.82807" lon="3.10637">
        <ele>940</ele>
        <time>2024-03-30T18:33:33Z</time>
      </trkpt>
      <trkpt lat="44.82816" lon="3.1064">
        <ele>938</ele>
        <time>2024-03-30T18:33:33Z</time>
      </trkpt>
      <trkpt lat="44.82825" lon="3.10611">
        <ele>936</ele>
        <time>2024-03-30T18:33:33Z</time>
      </trkpt>
      <trkpt lat="44.82832" lon="3.10615">
        <ele>934</ele>
        <time>2024-03-30T18:33:33Z</time>
      </trkpt>
      <trkpt lat="44.82837" lon="3.10623">
        <ele>932</ele>
        <time>2024-03-30T18:33:33Z</time>
      </trkpt>
      <trkpt lat="44.82871" lon="3.10644">
        <ele>930</ele>
        <time>2024-03-30T18:33:33Z</time>
      </trkpt>
      <trkpt lat="44.82885" lon="3.10666">
        <ele>928</ele>
        <time>2024-03-30T18:33:33Z</time>
      </trkpt>
      <trkpt lat="44.8289" lon="3.1068">
        <ele>927</ele>
        <time>2024-03-30T18:33:33Z</time>
      </trkpt>
      <trkpt lat="44.829" lon="3.10728">
        <ele>927</ele>
        <time>2024-03-30T18:33:33Z</time>
      </trkpt>
      <trkpt lat="44.82897" lon="3.10758">
        <ele>927</ele>
        <time>2024-03-30T18:33:33Z</time>
      </trkpt>
      <trkpt lat="44.82899" lon="3.10775">
        <ele>928</ele>
        <time>2024-03-30T18:33:33Z</time>
      </trkpt>
      <trkpt lat="44.82906" lon="3.10798">
        <ele>929</ele>
        <time>2024-03-30T18:33:33Z</time>
      </trkpt>
      <trkpt lat="44.82916" lon="3.10805">
        <ele>930</ele>
        <time>2024-03-30T18:33:33Z</time>
      </trkpt>
      <trkpt lat="44.82935" lon="3.10799">
        <ele>932</ele>
        <time>2024-03-30T18:33:33Z</time>
      </trkpt>
      <trkpt lat="44.82948" lon="3.10785">
        <ele>933</ele>
        <time>2024-03-30T18:33:33Z</time>
      </trkpt>
      <trkpt lat="44.82958" lon="3.10661">
        <ele>935</ele>
        <time>2024-03-30T18:33:33Z</time>
      </trkpt>
      <trkpt lat="44.82988" lon="3.10505">
        <ele>940</ele>
        <time>2024-03-30T18:33:33Z</time>
      </trkpt>
      <trkpt lat="44.82996" lon="3.10487">
        <ele>942</ele>
        <time>2024-03-30T18:33:33Z</time>
      </trkpt>
      <trkpt lat="44.83014" lon="3.10459">
        <ele>945</ele>
        <time>2024-03-30T18:33:33Z</time>
      </trkpt>
      <trkpt lat="44.83024" lon="3.10454">
        <ele>947</ele>
        <time>2024-03-30T18:33:33Z</time>
      </trkpt>
      <trkpt lat="44.83042" lon="3.10452">
        <ele>949</ele>
        <time>2024-03-30T18:33:33Z</time>
      </trkpt>
      <trkpt lat="44.8305" lon="3.10456">
        <ele>952</ele>
        <time>2024-03-30T18:33:33Z</time>
      </trkpt>
      <trkpt lat="44.83098" lon="3.10514">
        <ele>957</ele>
        <time>2024-03-30T18:33:33Z</time>
      </trkpt>
      <trkpt lat="44.83098" lon="3.10514">
        <ele>968</ele>
        <time>2024-03-30T18:33:33Z</time>
      </trkpt>
      <trkpt lat="44.83132" lon="3.10584">
        <ele>975</ele>
        <time>2024-03-30T18:33:33Z</time>
      </trkpt>
      <trkpt lat="44.83158" lon="3.10703">
        <ele>981</ele>
        <time>2024-03-30T18:33:33Z</time>
      </trkpt>
      <trkpt lat="44.83181" lon="3.10756">
        <ele>984</ele>
        <time>2024-03-30T18:33:33Z</time>
      </trkpt>
      <trkpt lat="44.83183" lon="3.10775">
        <ele>985</ele>
        <time>2024-03-30T18:33:33Z</time>
      </trkpt>
      <trkpt lat="44.83182" lon="3.10798">
        <ele>987</ele>
        <time>2024-03-30T18:33:33Z</time>
      </trkpt>
      <trkpt lat="44.83177" lon="3.10811">
        <ele>988</ele>
        <time>2024-03-30T18:33:33Z</time>
      </trkpt>
      <trkpt lat="44.83182" lon="3.1082">
        <ele>991</ele>
        <time>2024-03-30T18:33:33Z</time>
      </trkpt>
      <trkpt lat="44.83243" lon="3.10871">
        <ele>995</ele>
        <time>2024-03-30T18:33:33Z</time>
      </trkpt>
      <trkpt lat="44.83286" lon="3.10934">
        <ele>998</ele>
        <time>2024-03-30T18:33:33Z</time>
      </trkpt>
      <trkpt lat="44.83297" lon="3.10944">
        <ele>999</ele>
        <time>2024-03-30T18:33:33Z</time>
      </trkpt>
      <trkpt lat="44.83311" lon="3.10952">
        <ele>1000</ele>
        <time>2024-03-30T18:33:33Z</time>
      </trkpt>
      <trkpt lat="44.83309" lon="3.1097">
        <ele>1002</ele>
        <time>2024-03-30T18:33:33Z</time>
      </trkpt>
      <trkpt lat="44.83277" lon="3.1102">
        <ele>1005</ele>
        <time>2024-03-30T18:33:33Z</time>
      </trkpt>
      <trkpt lat="44.83277" lon="3.1102">
        <ele>1006</ele>
        <time>2024-03-30T18:33:33Z</time>
      </trkpt>
      <trkpt lat="44.83261" lon="3.11028">
        <ele>1007</ele>
        <time>2024-03-30T18:33:33Z</time>
      </trkpt>
      <trkpt lat="44.83257" lon="3.11042">
        <ele>1009</ele>
        <time>2024-03-30T18:33:33Z</time>
      </trkpt>
      <trkpt lat="44.83259" lon="3.11052">
        <ele>1011</ele>
        <time>2024-03-30T18:33:33Z</time>
      </trkpt>
      <trkpt lat="44.8329" lon="3.11103">
        <ele>1014</ele>
        <time>2024-03-30T18:33:33Z</time>
      </trkpt>
      <trkpt lat="44.8332" lon="3.11127">
        <ele>1016</ele>
        <time>2024-03-30T18:33:33Z</time>
      </trkpt>
      <trkpt lat="44.83325" lon="3.11138">
        <ele>1018</ele>
        <time>2024-03-30T18:33:33Z</time>
      </trkpt>
      <trkpt lat="44.83345" lon="3.11213">
        <ele>1020</ele>
        <time>2024-03-30T18:33:33Z</time>
      </trkpt>
      <trkpt lat="44.83344" lon="3.11234">
        <ele>1022</ele>
        <time>2024-03-30T18:33:33Z</time>
      </trkpt>
      <trkpt lat="44.83334" lon="3.11252">
        <ele>1023</ele>
        <time>2024-03-30T18:33:33Z</time>
      </trkpt>
      <trkpt lat="44.83321" lon="3.11279">
        <ele>1023</ele>
        <time>2024-03-30T18:33:33Z</time>
      </trkpt>
      <trkpt lat="44.83318" lon="3.11298">
        <ele>1024</ele>
        <time>2024-03-30T18:33:33Z</time>
      </trkpt>
      <trkpt lat="44.83318" lon="3.1133">
        <ele>1034</ele>
        <time>2024-03-30T18:33:33Z</time>
      </trkpt>
      <trkpt lat="44.8332" lon="3.11362">
        <ele>1038</ele>
        <time>2024-03-30T18:33:33Z</time>
      </trkpt>
      <trkpt lat="44.8337" lon="3.11478">
        <ele>1043</ele>
        <time>2024-03-30T18:33:33Z</time>
      </trkpt>
      <trkpt lat="44.83369" lon="3.1148">
        <ele>1044</ele>
        <time>2024-03-30T18:33:33Z</time>
      </trkpt>
      <trkpt lat="44.8339" lon="3.11507">
        <ele>1045</ele>
      </trkpt>
      <trkpt lat="44.8339" lon="3.11507">
        <ele>1046</ele>
        <time>2024-03-30T18:33:33Z</time>
      </trkpt>
      <trkpt lat="44.83402" lon="3.11509">
        <ele>1047</ele>
        <time>2024-03-30T18:33:33Z</time>
      </trkpt>
      <trkpt lat="44.83434" lon="3.11496">
        <ele>1049</ele>
        <time>2024-03-30T18:33:33Z</time>
      </trkpt>
      <trkpt lat="44.83447" lon="3.11501">
        <ele>1050</ele>
        <time>2024-03-30T18:33:33Z</time>
      </trkpt>
      <trkpt lat="44.83453" lon="3.11517">
        <ele>1051</ele>
        <time>2024-03-30T18:33:33Z</time>
      </trkpt>
      <trkpt lat="44.83473" lon="3.11637">
        <ele>1052</ele>
      </trkpt>
      <trkpt lat="44.83479" lon="3.11676">
        <ele>1053</ele>
        <time>2024-03-30T18:33:33Z</time>
      </trkpt>
      <trkpt lat="44.83489" lon="3.11762">
        <ele>1054</ele>
        <time>2024-03-30T18:33:33Z</time>
      </trkpt>
      <trkpt lat="44.8349" lon="3.11834">
        <ele>1053</ele>
      </trkpt>
      <trkpt lat="44.8349" lon="3.11838">
        <ele>1054</ele>
        <time>2024-03-30T18:33:33Z</time>
      </trkpt>
      <trkpt lat="44.83477" lon="3.11878">
        <ele>1055</ele>
        <time>2024-03-30T18:33:33Z</time>
      </trkpt>
      <trkpt lat="44.83474" lon="3.12029">
        <ele>1057</ele>
      </trkpt>
      <trkpt lat="44.8347" lon="3.12226">
        <ele>1060</ele>
      </trkpt>
      <trkpt lat="44.8347" lon="3.12228">
        <ele>1060</ele>
        <time>2024-03-30T18:33:33Z</time>
      </trkpt>
      <trkpt lat="44.83452" lon="3.12287">
        <ele>1061</ele>
        <time>2024-03-30T18:33:33Z</time>
      </trkpt>
      <trkpt lat="44.83454" lon="3.12342">
        <ele>1062</ele>
        <time>2024-03-30T18:33:33Z</time>
      </trkpt>
      <trkpt lat="44.83454" lon="3.12342">
        <ele>1062</ele>
        <time>2024-03-30T18:33:33Z</time>
      </trkpt>
      <trkpt lat="44.83472" lon="3.12418">
        <ele>1062</ele>
      </trkpt>
      <trkpt lat="44.8348" lon="3.1245">
        <ele>1062</ele>
        <time>2024-03-30T18:33:33Z</time>
      </trkpt>
      <trkpt lat="44.83533" lon="3.12606">
        <ele>1060</ele>
      </trkpt>
      <trkpt lat="44.83597" lon="3.12793">
        <ele>1058</ele>
      </trkpt>
      <trkpt lat="44.83655" lon="3.12961">
        <ele>1057</ele>
        <time>2024-03-30T18:33:33Z</time>
      </trkpt>
      <trkpt lat="44.83666" lon="3.12977">
        <ele>1057</ele>
      </trkpt>
      <trkpt lat="44.83672" lon="3.12985">
        <ele>1057</ele>
        <time>2024-03-30T18:33:33Z</time>
      </trkpt>
      <trkpt lat="44.8368" lon="3.13">
        <ele>1057</ele>
        <time>2024-03-30T18:33:33Z</time>
      </trkpt>
      <trkpt lat="44.8367" lon="3.13002">
        <ele>1058</ele>
        <time>2024-03-30T18:33:33Z</time>
      </trkpt>
      <trkpt lat="44.83609" lon="3.1303">
        <ele>1059</ele>
        <time>2024-03-30T18:33:33Z</time>
      </trkpt>
      <trkpt lat="44.83609" lon="3.13029">
        <ele>1059</ele>
        <time>2024-03-30T18:33:33Z</time>
      </trkpt>
      <trkpt lat="44.83545" lon="3.13051">
        <ele>1060</ele>
        <time>2024-03-30T18:33:33Z</time>
      </trkpt>
      <trkpt lat="44.83521" lon="3.13052">
        <ele>1060</ele>
      </trkpt>
      <trkpt lat="44.83514" lon="3.13052">
        <ele>1060</ele>
        <time>2024-03-30T18:33:33Z</time>
      </trkpt>
      <trkpt lat="44.83447" lon="3.13038">
        <ele>1058</ele>
        <time>2024-03-30T18:33:33Z</time>
      </trkpt>
      <trkpt lat="44.83402" lon="3.13022">
        <ele>1057</ele>
        <time>2024-03-30T18:33:33Z</time>
      </trkpt>
      <trkpt lat="44.83335" lon="3.1299">
        <ele>1055</ele>
      </trkpt>
      <trkpt lat="44.83334" lon="3.1299">
        <ele>1054</ele>
        <time>2024-03-30T18:33:33Z</time>
      </trkpt>
      <trkpt lat="44.83279" lon="3.12972">
        <ele>1053</ele>
        <time>2024-03-30T18:33:33Z</time>
      </trkpt>
      <trkpt lat="44.8326" lon="3.12964">
        <ele>1051</ele>
        <time>2024-03-30T18:33:33Z</time>
      </trkpt>
      <trkpt lat="44.83194" lon="3.1289">
        <ele>1049</ele>
        <time>2024-03-30T18:33:33Z</time>
      </trkpt>
      <trkpt lat="44.83178" lon="3.1288">
        <ele>1048</ele>
      </trkpt>
      <trkpt lat="44.83043" lon="3.12796">
        <ele>1046</ele>
        <time>2024-03-30T18:33:33Z</time>
      </trkpt>
      <trkpt lat="44.83043" lon="3.12797">
        <ele>1045</ele>
        <time>2024-03-30T18:33:33Z</time>
      </trkpt>
      <trkpt lat="44.83007" lon="3.1279">
        <ele>1043</ele>
      </trkpt>
      <trkpt lat="44.8292" lon="3.12772">
        <ele>1040</ele>
        <time>2024-03-30T18:33:33Z</time>
      </trkpt>
      <trkpt lat="44.82811" lon="3.12768">
        <ele>1036</ele>
      </trkpt>
      <trkpt lat="44.8279" lon="3.12767">
        <ele>1034</ele>
        <time>2024-03-30T18:33:33Z</time>
      </trkpt>
      <trkpt lat="44.82682" lon="3.1272">
        <ele>1030</ele>
        <time>2024-03-30T18:33:33Z</time>
      </trkpt>
      <trkpt lat="44.82647" lon="3.12716">
        <ele>1028</ele>
        <time>2024-03-30T18:33:33Z</time>
      </trkpt>
      <trkpt lat="44.82626" lon="3.12707">
        <ele>1027</ele>
      </trkpt>
      <trkpt lat="44.82604" lon="3.12698">
        <ele>1026</ele>
        <time>2024-03-30T18:33:33Z</time>
      </trkpt>
      <trkpt lat="44.82604" lon="3.12698">
        <ele>1017</ele>
        <time>2024-03-30T18:33:33Z</time>
      </trkpt>
      <trkpt lat="44.8247" lon="3.12588">
        <ele>1009</ele>
      </trkpt>
      <trkpt lat="44.82469" lon="3.12587">
        <ele>1008</ele>
        <time>2024-03-30T18:33:33Z</time>
      </trkpt>
      <trkpt lat="44.82452" lon="3.12578">
        <ele>1007</ele>
        <time>2024-03-30T18:33:33Z</time>
      </trkpt>
      <trkpt lat="44.82424" lon="3.12575">
        <ele>1005</ele>
        <time>2024-03-30T18:33:33Z</time>
      </trkpt>
      <trkpt lat="44.82397" lon="3.1258">
        <ele>1003</ele>
        <time>2024-03-30T18:33:33Z</time>
      </trkpt>
      <trkpt lat="44.82371" lon="3.12598">
        <ele>1000</ele>
        <time>2024-03-30T18:33:33Z</time>
      </trkpt>
      <trkpt lat="44.82293" lon="3.12639">
        <ele>997</ele>
      </trkpt>
      <trkpt lat="44.82293" lon="3.12639">
        <ele>997</ele>
        <time>2024-03-30T18:33:33Z</time>
      </trkpt>
      <trkpt lat="44.82227" lon="3.1263">
        <ele>996</ele>
        <time>2024-03-30T18:33:33Z</time>
      </trkpt>
      <trkpt lat="44.82227" lon="3.1263">
        <ele>996</ele>
        <time>2024-03-30T18:33:33Z</time>
      </trkpt>
      <trkpt lat="44.82154" lon="3.12634">
        <ele>996</ele>
        <time>2024-03-30T18:33:33Z</time>
      </trkpt>
      <trkpt lat="44.82096" lon="3.12623">
        <ele>996</ele>
        <time>2024-03-30T18:33:33Z</time>
      </trkpt>
      <trkpt lat="44.82051" lon="3.12596">
        <ele>979</ele>
        <time>2024-03-30T18:33:33Z</time>
      </trkpt>
      <trkpt lat="44.81964" lon="3.12532">
        <ele>971</ele>
        <time>2024-03-30T18:33:33Z</time>
      </trkpt>
      <trkpt lat="44.81916" lon="3.12492">
        <ele>968</ele>
        <time>2024-03-30T18:33:33Z</time>
      </trkpt>
      <trkpt lat="44.81865" lon="3.1245">
        <ele>967</ele>
        <time>2024-03-30T18:33:33Z</time>
      </trkpt>
      <trkpt lat="44.81849" lon="3.1245">
        <ele>967</ele>
        <time>2024-03-30T18:33:33Z</time>
      </trkpt>
      <trkpt lat="44.81838" lon="3.12454">
        <ele>967</ele>
        <time>2024-03-30T18:33:33Z</time>
      </trkpt>
      <trkpt lat="44.81829" lon="3.12452">
        <ele>967</ele>
        <time>2024-03-30T18:33:33Z</time>
      </trkpt>
      <trkpt lat="44.818" lon="3.12455">
        <ele>967</ele>
        <time>2024-03-30T18:33:33Z</time>
      </trkpt>
      <trkpt lat="44.81786" lon="3.12451">
        <ele>967</ele>
        <time>2024-03-30T18:33:33Z</time>
      </trkpt>
      <trkpt lat="44.81779" lon="3.12445">
        <ele>967</ele>
        <time>2024-03-30T18:33:33Z</time>
      </trkpt>
      <trkpt lat="44.81701" lon="3.12307">
        <ele>967</ele>
        <time>2024-03-30T18:33:33Z</time>
      </trkpt>
      <trkpt lat="44.81692" lon="3.12305">
        <ele>967</ele>
        <time>2024-03-30T18:33:33Z</time>
      </trkpt>
      <trkpt lat="44.81682" lon="3.12256">
        <ele>967</ele>
        <time>2024-03-30T18:33:33Z</time>
      </trkpt>
      <trkpt lat="44.81682" lon="3.12256">
        <ele>968</ele>
        <time>2024-03-30T18:33:33Z</time>
      </trkpt>
      <trkpt lat="44.8167" lon="3.12326">
        <ele>969</ele>
        <time>2024-03-30T18:33:33Z</time>
      </trkpt>
      <trkpt lat="44.81663" lon="3.12339">
        <ele>970</ele>
        <time>2024-03-30T18:33:33Z</time>
      </trkpt>
      <trkpt lat="44.81631" lon="3.12333">
        <ele>970</ele>
        <time>2024-03-30T18:33:33Z</time>
      </trkpt>
      <trkpt lat="44.81621" lon="3.12335">
        <ele>971</ele>
        <time>2024-03-30T18:33:33Z</time>
      </trkpt>
      <trkpt lat="44.8161" lon="3.12347">
        <ele>973</ele>
        <time>2024-03-30T18:33:33Z</time>
      </trkpt>
      <trkpt lat="44.81495" lon="3.12363">
        <ele>976</ele>
        <time>2024-03-30T18:33:33Z</time>
      </trkpt>
      <trkpt lat="44.81422" lon="3.12356">
        <ele>980</ele>
        <time>2024-03-30T18:33:33Z</time>
      </trkpt>
      <trkpt lat="44.81379" lon="3.12369">
        <ele>984</ele>
        <time>2024-03-30T18:33:33Z</time>
      </trkpt>
      <trkpt lat="44.81361" lon="3.12386">
        <ele>987</ele>
        <time>2024-03-30T18:33:33Z</time>
      </trkpt>
      <trkpt lat="44.81341" lon="3.12416">
        <ele>991</ele>
        <time>2024-03-30T18:33:33Z</time>
      </trkpt>
      <trkpt lat="44.81316" lon="3.12436">
        <ele>995</ele>
        <time>2024-03-30T18:33:33Z</time>
      </trkpt>
      <trkpt lat="44.81299" lon="3.12469">
        <ele>1000</ele>
        <time>2024-03-30T18:33:33Z</time>
      </trkpt>
      <trkpt lat="44.81299" lon="3.12471">
        <ele>1005</ele>
        <time>2024-03-30T18:33:33Z</time>
      </trkpt>
      <trkpt lat="44.81168" lon="3.12567">
        <ele>1017</ele>
        <time>2024-03-30T18:33:33Z</time>
      </trkpt>
      <trkpt lat="44.81144" lon="3.126">
        <ele>1022</ele>
        <time>2024-03-30T18:33:33Z</time>
      </trkpt>
      <trkpt lat="44.81089" lon="3.12631">
        <ele>1027</ele>
        <time>2024-03-30T18:33:33Z</time>
      </trkpt>
      <trkpt lat="44.81061" lon="3.12682">
        <ele>1030</ele>
        <time>2024-03-30T18:33:33Z</time>
      </trkpt>
      <trkpt lat="44.81046" lon="3.12762">
        <ele>1033</ele>
        <time>2024-03-30T18:33:33Z</time>
      </trkpt>
      <trkpt lat="44.81046" lon="3.12763">
        <ele>1034</ele>
        <time>2024-03-30T18:33:33Z</time>
      </trkpt>
      <trkpt lat="44.8104" lon="3.12775">
        <ele>1037</ele>
        <time>2024-03-30T18:33:33Z</time>
      </trkpt>
      <trkpt lat="44.80961" lon="3.12874">
        <ele>1045</ele>
        <time>2024-03-30T18:33:33Z</time>
      </trkpt>
      <trkpt lat="44.80903" lon="3.12993">
        <ele>1049</ele>
        <time>2024-03-30T18:33:33Z</time>
      </trkpt>
      <trkpt lat="44.80896" lon="3.12998">
        <ele>1049</ele>
        <time>2024-03-30T18:33:33Z</time>
      </trkpt>
      <trkpt lat="44.80844" lon="3.13091">
        <ele>1049</ele>
        <time>2024-03-30T18:33:33Z</time>
      </trkpt>
      <trkpt lat="44.80836" lon="3.13102">
        <ele>1050</ele>
        <time>2024-03-30T18:33:33Z</time>
      </trkpt>
      <trkpt lat="44.80827" lon="3.13106">
        <ele>1051</ele>
        <time>2024-03-30T18:33:33Z</time>
      </trkpt>
      <trkpt lat="44.80781" lon="3.13116">
        <ele>1054</ele>
        <time>2024-03-30T18:33:33Z</time>
      </trkpt>
      <trkpt lat="44.80781" lon="3.13115">
        <ele>1056</ele>
        <time>2024-03-30T18:33:33Z</time>
      </trkpt>
      <trkpt lat="44.80742" lon="3.13108">
        <ele>1060</ele>
        <time>2024-03-30T18:33:33Z</time>
      </trkpt>
      <trkpt lat="44.80729" lon="3.13109">
        <ele>1062</ele>
        <time>2024-03-30T18:33:33Z</time>
      </trkpt>
      <trkpt lat="44.80657" lon="3.13134">
        <ele>1067</ele>
        <time>2024-03-30T18:33:33Z</time>
      </trkpt>
      <trkpt lat="44.80645" lon="3.13133">
        <ele>1068</ele>
        <time>2024-03-30T18:33:33Z</time>
      </trkpt>
      <trkpt lat="44.80629" lon="3.13126">
        <ele>1069</ele>
        <time>2024-03-30T18:33:33Z</time>
      </trkpt>
      <trkpt lat="44.80615" lon="3.13114">
        <ele>1070</ele>
        <time>2024-03-30T18:33:33Z</time>
      </trkpt>
      <trkpt lat="44.80607" lon="3.13103">
        <ele>1070</ele>
        <time>2024-03-30T18:33:33Z</time>
      </trkpt>
      <trkpt lat="44.80604" lon="3.13042">
        <ele>1070</ele>
        <time>2024-03-30T18:33:33Z</time>
      </trkpt>
      <trkpt lat="44.80599" lon="3.13028">
        <ele>1076</ele>
        <time>2024-03-30T18:33:33Z</time>
      </trkpt>
      <trkpt lat="44.80595" lon="3.1302">
        <ele>1077</ele>
        <time>2024-03-30T18:33:33Z</time>
      </trkpt>
      <trkpt lat="44.80588" lon="3.13013">
        <ele>1079</ele>
        <time>2024-03-30T18:33:33Z</time>
      </trkpt>
      <trkpt lat="44.80513" lon="3.12963">
        <ele>1083</ele>
        <time>2024-03-30T18:33:33Z</time>
      </trkpt>
      <trkpt lat="44.80502" lon="3.12946">
        <ele>1082</ele>
        <time>2024-03-30T18:33:33Z</time>
      </trkpt>
      <trkpt lat="44.80495" lon="3.12939">
        <ele>1082</ele>
        <time>2024-03-30T18:33:33Z</time>
      </trkpt>
      <trkpt lat="44.80484" lon="3.12931">
        <ele>1081</ele>
        <time>2024-03-30T18:33:33Z</time>
      </trkpt>
      <trkpt lat="44.80476" lon="3.12928">
        <ele>1080</ele>
        <time>2024-03-30T18:33:33Z</time>
      </trkpt>
      <trkpt lat="44.80435" lon="3.12927">
        <ele>1079</ele>
        <time>2024-03-30T18:33:33Z</time>
      </trkpt>
      <trkpt lat="44.8041" lon="3.12934">
        <ele>1078</ele>
        <time>2024-03-30T18:33:33Z</time>
      </trkpt>
      <trkpt lat="44.8041" lon="3.12935">
        <ele>1078</ele>
        <time>2024-03-30T18:33:33Z</time>
      </trkpt>
      <trkpt lat="44.80368" lon="3.12981">
        <ele>1077</ele>
        <time>2024-03-30T18:33:33Z</time>
      </trkpt>
      <trkpt lat="44.80348" lon="3.12994">
        <ele>1077</ele>
        <time>2024-03-30T18:33:33Z</time>
      </trkpt>
      <trkpt lat="44.80339" lon="3.12993">
        <ele>1078</ele>
        <time>2024-03-30T18:33:33Z</time>
      </trkpt>
      <trkpt lat="44.80256" lon="3.13076">
        <ele>1080</ele>
        <time>2024-03-30T18:33:33Z</time>
      </trkpt>
      <trkpt lat="44.80246" lon="3.13079">
        <ele>1081</ele>
        <time>2024-03-30T18:33:33Z</time>
      </trkpt>
      <trkpt lat="44.80207" lon="3.13064">
        <ele>1081</ele>
        <time>2024-03-30T18:33:33Z</time>
      </trkpt>
      <trkpt lat="44.8018" lon="3.13057">
        <ele>1082</ele>
        <time>2024-03-30T18:33:33Z</time>
      </trkpt>
      <trkpt lat="44.80163" lon="3.13071">
        <ele>1084</ele>
        <time>2024-03-30T18:33:33Z</time>
      </trkpt>
      <trkpt lat="44.80142" lon="3.13077">
        <ele>1086</ele>
        <time>2024-03-30T18:33:33Z</time>
      </trkpt>
      <trkpt lat="44.80132" lon="3.13085">
        <ele>1089</ele>
        <time>2024-03-30T18:33:33Z</time>
      </trkpt>
      <trkpt lat="44.80078" lon="3.13113">
        <ele>1092</ele>
        <time>2024-03-30T18:33:33Z</time>
      </trkpt>
      <trkpt lat="44.80078" lon="3.13115">
        <ele>1093</ele>
        <time>2024-03-30T18:33:33Z</time>
      </trkpt>
      <trkpt lat="44.8007" lon="3.1312">
        <ele>1094</ele>
        <time>2024-03-30T18:33:33Z</time>
      </trkpt>
      <trkpt lat="44.80065" lon="3.13133">
        <ele>1096</ele>
        <time>2024-03-30T18:33:33Z</time>
      </trkpt>
      <trkpt lat="44.80063" lon="3.13145">
        <ele>1098</ele>
        <time>2024-03-30T18:33:33Z</time>
      </trkpt>
      <trkpt lat="44.80065" lon="3.13158">
        <ele>1102</ele>
        <time>2024-03-30T18:33:33Z</time>
      </trkpt>
      <trkpt lat="44.80046" lon="3.13286">
        <ele>1110</ele>
        <time>2024-03-30T18:33:33Z</time>
      </trkpt>
      <trkpt lat="44.80055" lon="3.13403">
        <ele>1115</ele>
        <time>2024-03-30T18:33:33Z</time>
      </trkpt>
      <trkpt lat="44.80053" lon="3.13454">
        <ele>1118</ele>
        <time>2024-03-30T18:33:33Z</time>
      </trkpt>
      <trkpt lat="44.80034" lon="3.13543">
        <ele>1121</ele>
        <time>2024-03-30T18:33:33Z</time>
      </trkpt>
      <trkpt lat="44.79997" lon="3.13616">
        <ele>1125</ele>
        <time>2024-03-30T18:33:33Z</time>
      </trkpt>
      <trkpt lat="44.79965" lon="3.13688">
        <ele>1127</ele>
        <time>2024-03-30T18:33:33Z</time>
      </trkpt>
      <trkpt lat="44.79964" lon="3.13753">
        <ele>1130</ele>
        <time>2024-03-30T18:33:33Z</time>
      </trkpt>
      <trkpt lat="44.79965" lon="3.13754">
        <ele>1131</ele>
        <time>2024-03-30T18:33:33Z</time>
      </trkpt>
      <trkpt lat="44.79896" lon="3.14031">
        <ele>1136</ele>
        <time>2024-03-30T18:33:33Z</time>
      </trkpt>
      <trkpt lat="44.79869" lon="3.14069">
        <ele>1136</ele>
        <time>2024-03-30T18:33:33Z</time>
      </trkpt>
      <trkpt lat="44.79862" lon="3.14073">
        <ele>1137</ele>
        <time>2024-03-30T18:33:33Z</time>
      </trkpt>
      <trkpt lat="44.79854" lon="3.14071">
        <ele>1138</ele>
        <time>2024-03-30T18:33:33Z</time>
      </trkpt>
      <trkpt lat="44.79849" lon="3.1409">
        <ele>1140</ele>
        <time>2024-03-30T18:33:33Z</time>
      </trkpt>
      <trkpt lat="44.79847" lon="3.14135">
        <ele>1145</ele>
        <time>2024-03-30T18:33:33Z</time>
      </trkpt>
      <trkpt lat="44.79798" lon="3.14337">
        <ele>1153</ele>
        <time>2024-03-30T18:33:33Z</time>
      </trkpt>
      <trkpt lat="44.79777" lon="3.14531">
        <ele>1158</ele>
        <time>2024-03-30T18:33:33Z</time>
      </trkpt>
      <trkpt lat="44.79776" lon="3.14531">
        <ele>1158</ele>
        <time>2024-03-30T18:33:33Z</time>
      </trkpt>
      <trkpt lat="44.79773" lon="3.1455">
        <ele>1159</ele>
        <time>2024-03-30T18:33:33Z</time>
      </trkpt>
      <trkpt lat="44.79768" lon="3.14559">
        <ele>1159</ele>
        <time>2024-03-30T18:33:33Z</time>
      </trkpt>
      <trkpt lat="44.79745" lon="3.14584">
        <ele>1160</ele>
        <time>2024-03-30T18:33:33Z</time>
      </trkpt>
      <trkpt lat="44.7973" lon="3.14622">
        <ele>1161</ele>
        <time>2024-03-30T18:33:33Z</time>
      </trkpt>
      <trkpt lat="44.7971" lon="3.14756">
        <ele>1162</ele>
        <time>2024-03-30T18:33:33Z</time>
      </trkpt>
      <trkpt lat="44.79713" lon="3.14876">
        <ele>1161</ele>
        <time>2024-03-30T18:33:33Z</time>
      </trkpt>
      <trkpt lat="44.79722" lon="3.14907">
        <ele>1162</ele>
        <time>2024-03-30T18:33:33Z</time>
      </trkpt>
      <trkpt lat="44.79775" lon="3.14983">
        <ele>1163</ele>
        <time>2024-03-30T18:33:33Z</time>
      </trkpt>
      <trkpt lat="44.7979" lon="3.15013">
        <ele>1164</ele>
        <time>2024-03-30T18:33:33Z</time>
      </trkpt>
      <trkpt lat="44.79801" lon="3.15049">
        <ele>1166</ele>
        <time>2024-03-30T18:33:33Z</time>
      </trkpt>
      <trkpt lat="44.798" lon="3.15124">
        <ele>1169</ele>
        <time>2024-03-30T18:33:33Z</time>
      </trkpt>
      <trkpt lat="44.79755" lon="3.1529">
        <ele>1175</ele>
        <time>2024-03-30T18:33:33Z</time>
      </trkpt>
      <trkpt lat="44.79755" lon="3.15291">
        <ele>1176</ele>
        <time>2024-03-30T18:33:33Z</time>
      </trkpt>
      <trkpt lat="44.79744" lon="3.15312">
        <ele>1178</ele>
        <time>2024-03-30T18:33:33Z</time>
      </trkpt>
      <trkpt lat="44.79752" lon="3.15315">
        <ele>1179</ele>
        <time>2024-03-30T18:33:33Z</time>
      </trkpt>
      <trkpt lat="44.79791" lon="3.15337">
        <ele>1183</ele>
        <time>2024-03-30T18:33:33Z</time>
      </trkpt>
      <trkpt lat="44.79798" lon="3.15346">
        <ele>1185</ele>
        <time>2024-03-30T18:33:33Z</time>
      </trkpt>
      <trkpt lat="44.79825" lon="3.15428">
        <ele>1188</ele>
        <time>2024-03-30T18:33:33Z</time>
      </trkpt>
      <trkpt lat="44.79938" lon="3.15553">
        <ele>1189</ele>
        <time>2024-03-30T18:33:33Z</time>
      </trkpt>
      <trkpt lat="44.79948" lon="3.15566">
        <ele>1187</ele>
        <time>2024-03-30T18:33:33Z</time>
      </trkpt>
      <trkpt lat="44.79958" lon="3.15574">
        <ele>1183</ele>
        <time>2024-03-30T18:33:33Z</time>
      </trkpt>
      <trkpt lat="44.80056" lon="3.156">
        <ele>1175</ele>
        <time>2024-03-30T18:33:33Z</time>
      </trkpt>
      <trkpt lat="44.80212" lon="3.15727">
        <ele>1166</ele>
        <time>2024-03-30T18:33:33Z</time>
      </trkpt>
      <trkpt lat="44.80212" lon="3.15728">
        <ele>1164</ele>
        <time>2024-03-30T18:33:33Z</time>
      </trkpt>
      <trkpt lat="44.80332" lon="3.15895">
        <ele>1160</ele>
        <time>2024-03-30T18:33:33Z</time>
      </trkpt>
      <trkpt lat="44.80346" lon="3.15908">
        <ele>1158</ele>
        <time>2024-03-30T18:33:33Z</time>
      </trkpt>
      <trkpt lat="44.80375" lon="3.15924">
        <ele>1156</ele>
        <time>2024-03-30T18:33:33Z</time>
      </trkpt>
      <trkpt lat="44.80393" lon="3.15928">
        <ele>1155</ele>
      </trkpt>
      <trkpt lat="44.80407" lon="3.15931">
        <ele>1152</ele>
        <time>2024-03-30T18:33:33Z</time>
      </trkpt>
      <trkpt lat="44.80471" lon="3.15922">
        <ele>1148</ele>
        <time>2024-03-30T18:33:33Z</time>
      </trkpt>
      <trkpt lat="44.80493" lon="3.15924">
        <ele>1147</ele>
        <time>2024-03-30T18:33:33Z</time>
      </trkpt>
      <trkpt lat="44.80499" lon="3.15929">
        <ele>1145</ele>
        <time>2024-03-30T18:33:33Z</time>
      </trkpt>
      <trkpt lat="44.80506" lon="3.15941">
        <ele>1143</ele>
        <time>2024-03-30T18:33:33Z</time>
      </trkpt>
      <trkpt lat="44.80522" lon="3.15975">
        <ele>1141</ele>
        <time>2024-03-30T18:33:33Z</time>
      </trkpt>
      <trkpt lat="44.80529" lon="3.16035">
        <ele>1140</ele>
        <time>2024-03-30T18:33:33Z</time>
      </trkpt>
      <trkpt lat="44.80532" lon="3.16045">
        <ele>1140</ele>
        <time>2024-03-30T18:33:33Z</time>
      </trkpt>
      <trkpt lat="44.80538" lon="3.16052">
        <ele>1140</ele>
        <time>2024-03-30T18:33:33Z</time>
      </trkpt>
      <trkpt lat="44.80557" lon="3.16062">
        <ele>1141</ele>
        <time>2024-03-30T18:33:33Z</time>
      </trkpt>
      <trkpt lat="44.80568" lon="3.16073">
        <ele>1142</ele>
        <time>2024-03-30T18:33:33Z</time>
      </trkpt>
      <trkpt lat="44.80647" lon="3.16265">
        <ele>1147</ele>
        <time>2024-03-30T18:33:33Z</time>
      </trkpt>
      <trkpt lat="44.80654" lon="3.1627">
        <ele>1147</ele>
        <time>2024-03-30T18:33:33Z</time>
      </trkpt>
      <trkpt lat="44.80698" lon="3.16297">
        <ele>1147</ele>
        <time>2024-03-30T18:33:33Z</time>
      </trkpt>
      <trkpt lat="44.80722" lon="3.16308">
        <ele>1146</ele>
        <time>2024-03-30T18:33:33Z</time>
      </trkpt>
      <trkpt lat="44.80809" lon="3.16329">
        <ele>1144</ele>
        <time>2024-03-30T18:33:33Z</time>
      </trkpt>
      <trkpt lat="44.80851" lon="3.16345">
        <ele>1142</ele>
        <time>2024-03-30T18:33:33Z</time>
      </trkpt>
      <trkpt lat="44.8096" lon="3.16451">
        <ele>1137</ele>
        <time>2024-03-30T18:33:33Z</time>
      </trkpt>
      <trkpt lat="44.80975" lon="3.16491">
        <ele>1135</ele>
        <time>2024-03-30T18:33:33Z</time>
      </trkpt>
      <trkpt lat="44.81087" lon="3.16676">
        <ele>1134</ele>
        <time>2024-03-30T18:33:33Z</time>
      </trkpt>
      <trkpt lat="44.81114" lon="3.16702">
        <ele>1134</ele>
        <time>2024-03-30T18:33:33Z</time>
      </trkpt>
      <trkpt lat="44.81189" lon="3.16701">
        <ele>1134</ele>
        <time>2024-03-30T18:33:33Z</time>
      </trkpt>
      <trkpt lat="44.81191" lon="3.16738">
        <ele>1134</ele>
        <time>2024-03-30T18:33:33Z</time>
      </trkpt>
      <trkpt lat="44.81201" lon="3.16744">
        <ele>1134</ele>
        <time>2024-03-30T18:33:33Z</time>
      </trkpt>
      <trkpt lat="44.81208" lon="3.16751">
        <ele>1134</ele>
        <time>2024-03-30T18:33:33Z</time>
      </trkpt>
      <trkpt lat="44.81223" lon="3.16779">
        <ele>1135</ele>
        <time>2024-03-30T18:33:33Z</time>
      </trkpt>
      <trkpt lat="44.81232" lon="3.16788">
        <ele>1134</ele>
        <time>2024-03-30T18:33:33Z</time>
      </trkpt>
      <trkpt lat="44.81234" lon="3.16805">
        <ele>1134</ele>
        <time>2024-03-30T18:33:33Z</time>
      </trkpt>
      <trkpt lat="44.81239" lon="3.16818">
        <ele>1134</ele>
        <time>2024-03-30T18:33:33Z</time>
      </trkpt>
      <trkpt lat="44.81229" lon="3.16843">
        <ele>1129</ele>
        <time>2024-03-30T18:33:33Z</time>
      </trkpt>
    </trkseg>
  </trk>
</gpx>